K7JGC-9 Weather Reports


Display with metric or nautical units.
time (UTC)temp
F
wind
direction
speed
MPH
gust
MPH
rain 1hr
in
rain 24hr
in
rain mn
in
humidity
%
barometer
mb
20260508002529 70 172 0.0 0.0 0.00 0.00 0.00 32 1017.2
20260507235525 70 171 0.0 0.0 0.00 0.00 0.00 38 1017.5
20260507232524 72 178 0.0 0.0 0.00 0.00 0.00 38 1017.7
20260507225521 77 177 0.0 0.0 0.00 0.00 0.00 36 1018.1
20260507222518 75 177 0.0 0.0 0.00 0.00 0.00 37 1018.3
20260507215516 76 176 0.0 0.0 0.00 0.00 0.00 38 1019.0
20260507212514 75 178 0.0 0.0 0.00 0.00 0.00 40 1019.3
20260507205512 74 188 0.0 0.0 0.00 0.00 0.00 44 1019.5
20260507202509 71 175 0.0 0.0 0.00 0.00 0.00 48 1019.8
20260507195504 71 181 0.0 0.0 0.00 0.00 0.00 47 1020.2
20260507192502 65 177 0.0 0.0 0.00 0.00 0.00 57 1020.6
20260507185502 66 179 0.0 0.0 0.00 0.00 0.00 55 1020.7
20260507182501 66 182 0.0 0.0 0.00 0.00 0.00 53 1021.2
20260507175457 63 181 0.0 0.0 0.00 0.00 0.00 55 1021.3
20260507172457 60 179 0.0 0.0 0.00 0.00 0.00 61 1021.4
20260507165453 56 179 0.0 0.0 0.00 0.00 0.00 68 1021.4
20260507162451 56 178 0.0 0.0 0.00 0.00 0.00 69 1021.8
20260507155447 55 181 0.0 0.0 0.00 0.00 0.00 68 1021.8
20260507152444 54 178 0.0 0.0 0.00 0.00 0.00 71 1021.9
20260507145441 53 179 0.0 0.0 0.00 0.00 0.00 72 1021.9
20260507142439 53 178 0.0 0.0 0.00 0.00 0.00 72 1021.8
20260507135438 52 173 0.0 0.0 0.00 0.00 0.00 74 1021.5
20260507132436 52 176 0.0 0.0 0.00 0.00 0.00 74 1021.3
20260507125432 52 179 0.0 0.0 0.00 0.00 0.00 76 1021.5
20260507122430 52 178 0.0 0.0 0.00 0.00 0.00 75 1021.5
20260507115430 53 178 0.0 0.0 0.00 0.00 0.00 75 1021.6
20260507112429 53 180 0.0 0.0 0.00 0.00 0.00 74 1021.6
20260507105426 53 188 0.0 0.0 0.00 0.00 0.00 74 1021.7
20260507102422 54 180 0.0 0.0 0.00 0.00 0.00 75 1021.9
20260507095421 54 175 0.0 0.0 0.00 0.00 0.00 75 1021.9
20260507092420 54 180 0.0 0.0 0.00 0.00 0.00 76 1022.0
20260507085418 55 179 0.0 0.0 0.00 0.00 0.00 75 1022.3
20260507082415 55 178 0.0 0.0 0.00 0.00 0.00 75 1022.3
20260507075410 55 181 0.0 0.0 0.00 0.00 0.00 76 1022.2
20260507072410 55 180 0.0 0.0 0.00 0.00 0.00 78 1022.2
20260507065409 55 176 0.0 0.0 0.00 0.00 0.00 77 1022.3
20260507062404 56 179 0.0 0.0 0.00 0.00 0.00 77 1022.1
20260507055404 56 177 0.0 0.0 0.00 0.00 0.00 77 1022.2
20260507052400 55 180 0.0 0.0 0.00 0.00 0.00 78 1022.3
20260507045359 57 177 0.0 0.0 0.00 0.00 0.00 75 1022.1
20260507042355 57 178 0.0 0.0 0.00 0.00 0.00 74 1021.9
20260507035350 59 177 0.0 0.0 0.00 0.00 0.00 73 1021.8
20260507032350 60 180 0.0 0.0 0.00 0.00 0.00 72 1021.3
20260507025349 61 178 0.0 0.0 0.00 0.00 0.00 72 1020.8
20260507022347 62 177 0.0 0.0 0.00 0.00 0.00 70 1020.7
20260507015346 64 176 0.0 0.0 0.00 0.00 0.00 68 1020.9
20260507012343 66 179 0.0 0.0 0.00 0.00 0.00 65 1020.8
20260507005339 68 180 0.0 0.0 0.00 0.00 0.00 63 1020.7